Simultaneous Nadir Overpasses (SNOs) Predictions

Prediction of SNOs between GOES-17 and NOAA-20 Satellite Orbit:

Table of predicted SNOs for the next 14.0 days since TLE Epoch: 10/28/2022
Index Date Time (GOES-17) GOES-17 Lat,Lon NOAA-20 Lat,Lon Distance(km) Time Diff (sec)
1 10/28/2022 22:24:10 -0.04,-137.33 0.55,-134.59 311.09 80
2 10/30/2022 10:43:18 0.03,-137.33 0.62,-139.86 289.36 80
3 10/31/2022 10:27:13 0.03,-137.32 -0.42,-135.34 226.52 80
4 11/01/2022 22:46:29 -0.02,-137.31 -0.74,-140.64 379.93 80
5 11/02/2022 22:30:24 -0.02,-137.30 0.24,-136.11 135.89 80
6 11/04/2022 10:49:31 0.02,-137.29 0.93,-141.37 464.91 80
7 11/05/2022 10:33:26 0.02,-137.29 -0.06,-136.84 50.90 80
8 11/07/2022 22:33:57 -0.02,-137.25 -0.10,-137.61 40.31 80
9 11/08/2022 22:17:51 -0.02,-137.24 0.89,-133.07 475.01 80
10 11/10/2022 10:36:59 0.02,-137.23 0.28,-138.34 126.98 80
11 11/11/2022 10:20:54 0.02,-137.21 -0.77,-133.81 387.82 80
